Starlink 11119

operational
NORAD ID: 60121 Int'l Des: 2024-118 Owner: SPXS Country: US Constellation: starlink
LEOCIRCULAR

About Starlink 11119

Description loading...

Live Position

Loading 3D Globe...

Upcoming Passes

Altitude History

Altitude vs Time

uPlot chart will show altitude changes over time

Two-Line Element Set

1 60121U 24118J 26095.28378775 .00001683 00000-0 18754-4 0 9992
2 60121 53.1587 89.9056 0001264 92.5891 267.5271 15.69700561102176
Epoch: Apr 5, 2026 • Age: 10 hours

Current Status

Altitude 360.9 km
Velocity 7.69 km/s
Sub-Earth Point -1.67°S, 176.16°W
Launch Date Jun 24, 2024
Age 1.7 years
Type internet

Technical Details

Classification Payload
Mass 960.00 kg
Dry Mass 910.00 kg
Total Mass 960.00 kg
Length 0.30 m
Diameter 4.10 m
Span 29.00 m
Shape Box + pan
Manufacturer SPXS
Bus Type Starlink V2MD
Phase Status In Orbit
Owner/State SPXS/US

Large Constellations

Loading constellations...